< < Back
Terminal Aerodrome Forecast


Current Version              Previous Versions:   1  2  3  4  5  6  7  8  9  

Terminal Aerodrome Forecast

372
FTUS44 KMOB 011739
TAFMOB
TAF
KMOB 011739Z 0118/0218 00000KT P6SM FEW045 BKN250
     FM020900 VRB02KT P6SM SKC
     FM021500 34003KT P6SM SKC=

Latest METAR

756
SAUS80 KWBC 012000 RRH
MTRMOB
METAR KMOB 011956Z 17008KT 10SM FEW060 SCT070 SCT100 32/20 A3005 RMK AO2
SLP173 T03220200


USA.gov is the U.S. government's official web portal to all federal, state and local government web resources and services.